FW3145 Weather Reports


Display with metric or nautical units.
time (UTC)temp
F
wind
direction
speed
MPH
gust
MPH
rain 1hr
in
rain 24hr
in
rain mn
in
humidity
%
barometer
mb
20260906184558 78 28 0.0 0.0 0.00 0.00 0.00 68 1018.5
20260906183051 79 29 0.0 0.0 0.00 0.00 0.00 66 1018.4
20260906181552 79 5 0.0 0.0 0.00 0.00 0.00 66 1018.2
20260906180109 80 9 0.0 0.0 0.00 0.00 0.00 65 1017.8
20260906174549 81 273 0.0 0.0 0.00 0.00 0.00 64 1017.6
20260906173049 83 273 0.0 0.0 0.00 0.00 0.00 62 1017.5
20260906171548 85 273 0.0 0.0 0.00 0.00 0.00 60 1017.3
20260906170055 86 273 0.0 0.0 0.00 0.00 0.00 56 1017.3
20260906164547 87 268 0.0 0.0 0.00 0.00 0.00 54 1017.3
20260906163106 87 258 0.0 0.0 0.00 0.00 0.00 53 1017.3
20260906161546 88 234 0.0 0.0 0.00 0.00 0.00 51 1017.1
20260906160046 88 242 0.0 0.0 0.00 0.00 0.00 50 1017.1
20260906154544 89 236 0.0 0.0 0.00 0.00 0.00 49 1017.1
20260906153051 90 254 0.0 0.0 0.00 0.00 0.00 49 1017.0
20260906151543 90 252 0.0 0.0 0.00 0.00 0.00 48 1017.0
20260906150045 91 252 0.0 0.0 0.00 0.00 0.00 47 1016.9
20260906144542 91 257 0.0 0.0 0.00 0.00 0.00 48 1016.8
20260906143142 92 266 0.0 0.0 0.00 0.00 0.00 46 1016.9
20260906141540 95 242 0.0 0.0 0.00 0.00 0.00 44 1016.8
20260906140044 94 288 0.0 0.0 0.00 0.00 0.00 46 1016.9
20260906134538 94 158 0.0 0.0 0.00 0.00 0.00 43 1016.8
20260906133036 94 166 0.0 0.0 0.00 0.00 0.00 45 1016.9
20260906131533 93 186 0.0 0.0 0.00 0.00 0.00 44 1017.0
20260906130035 93 232 0.0 0.0 0.00 0.00 0.00 45 1017.1
20260906124529 92 128 0.0 0.0 0.00 0.00 0.00 47 1017.2
20260906123027 92 13 0.0 0.0 0.00 0.00 0.00 52 1017.3
20260906121525 91 239 0.0 0.0 0.00 0.00 0.00 51 1017.3
20260906120022 90 221 0.0 0.0 0.00 0.00 0.00 52 1017.5
20260906114520 90 95 0.0 0.0 0.00 0.00 0.00 53 1017.5
20260906113020 90 149 0.0 0.0 0.00 0.00 0.00 53 1017.6
20260906111519 90 163 0.0 0.0 0.00 0.00 0.00 54 1017.7
20260906110015 89 96 0.0 0.0 0.00 0.00 0.00 50 1017.7
20260906104513 89 128 0.0 0.0 0.00 0.00 0.00 51 1017.7
20260906103009 87 217 0.0 0.0 0.00 0.00 0.00 53 1017.8
20260906101506 86 141 0.0 0.0 0.00 0.00 0.00 56 1017.9
20260906100002 85 116 0.0 0.0 0.00 0.00 0.00 58 1018.1
20260906094607 84 163 0.0 0.0 0.00 0.00 0.00 61 1018.3
20260906093058 83 109 0.0 0.0 0.00 0.00 0.00 64 1018.3
20260906091552 83 116 0.0 0.0 0.00 0.00 0.00 65 1018.5
20260906090047 82 144 0.0 0.0 0.00 0.00 0.00 67 1018.5
20260906084550 81 182 0.0 0.0 0.00 0.00 0.00 67 1018.5
20260906083039 81 149 0.0 0.0 0.00 0.00 0.00 68 1018.5
20260906081535 79 199 0.0 0.0 0.00 0.00 0.00 69 1018.5
20260906080033 79 183 0.0 0.0 0.00 0.00 0.00 69 1018.3
20260906074528 78 186 0.0 0.0 0.00 0.00 0.00 71 1018.2
20260906073026 77 172 0.0 0.0 0.00 0.00 0.00 73 1018.2
20260906071517 75 183 0.0 0.0 0.00 0.00 0.00 75 1018.1
20260906070013 75 126 0.0 0.0 0.00 0.00 0.00 76 1018.0
20260906064511 74 117 0.0 0.0 0.00 0.00 0.00 77 1018.1
20260906063004 73 108 0.0 0.0 0.00 0.00 0.00 78 1018.1
20260906061600 72 108 0.0 0.0 0.00 0.00 0.00 78 1018.0
20260906054551 67 108 0.0 0.0 0.00 0.00 0.00 80 1017.7
20260906053046 65 336 0.0 0.0 0.00 0.00 0.00 80 1017.5
20260906051545 64 336 0.0 0.0 0.00 0.00 0.00 81 1017.5
20260906050043 64 336 0.0 0.0 0.00 0.00 0.00 81 1017.5
20260906044538 64 336 0.0 0.0 0.00 0.00 0.00 81 1017.5
20260906043037 64 344 0.0 0.0 0.00 0.00 0.00 81 1017.3
20260906041542 64 344 0.0 0.0 0.00 0.00 0.00 81 1017.2
20260906040043 65 344 0.0 0.0 0.00 0.00 0.00 81 1017.1
20260906034535 65 344 0.0 0.0 0.00 0.00 0.00 81 1017.0
20260906033033 65 344 0.0 0.0 0.00 0.00 0.00 81 1017.0
20260906031532 65 344 0.0 0.0 0.00 0.00 0.00 81 1017.1
20260906030031 65 344 0.0 0.0 0.00 0.00 0.00 80 1017.1
20260906024531 65 344 0.0 0.0 0.00 0.00 0.00 81 1017.2
20260906023032 65 344 0.0 0.0 0.00 0.00 0.00 80 1017.3
20260906021527 66 344 0.0 0.0 0.00 0.00 0.00 80 1017.2
20260906020024 66 344 0.0 0.0 0.00 0.00 0.00 80 1017.0
20260906014532 66 344 0.0 0.0 0.00 0.00 0.00 80 1017.1
20260906013020 67 343 0.0 0.0 0.00 0.00 0.00 80 1017.1
20260906011519 68 343 0.0 0.0 0.00 0.00 0.00 80 1017.1
20260906010017 68 344 0.0 0.0 0.00 0.00 0.00 79 1017.1
20260906004517 68 346 0.0 0.0 0.00 0.00 0.00 79 1017.2
20260906003016 68 345 0.0 0.0 0.00 0.00 0.00 78 1017.2
20260906001515 68 345 0.0 0.0 0.00 0.00 0.00 78 1017.3
20260906000015 69 345 0.0 0.0 0.00 0.00 0.00 77 1017.1
20260905234514 69 345 0.0 0.0 0.00 0.00 0.00 77 1017.2
20260905233013 68 345 0.0 0.0 0.00 0.00 0.00 75 1017.2
20260905231512 68 343 0.0 0.0 0.00 0.00 0.00 74 1017.2
20260905230011 69 342 0.0 0.0 0.00 0.00 0.00 72 1017.1
20260905224516 69 341 0.0 0.0 0.00 0.00 0.00 73 1017.2
20260905223008 70 342 0.0 0.0 0.00 0.00 0.00 73 1017.2
20260905221512 70 341 0.0 0.0 0.00 0.00 0.00 74 1017.1
20260905220002 71 339 0.0 0.0 0.00 0.00 0.00 74 1017.1
20260905214501 72 340 0.0 0.0 0.00 0.00 0.00 73 1017.1
20260905213001 72 339 0.0 0.0 0.00 0.00 0.00 71 1017.1
20260905211600 72 349 0.0 0.0 0.00 0.00 0.00 69 1017.1
20260905210059 72 355 0.0 0.0 0.00 0.00 0.00 67 1017.0
20260905204559 72 360 0.0 0.0 0.00 0.00 0.00 65 1017.0
20260905203101 73 5 0.0 0.0 0.00 0.00 0.00 63 1017.1
20260905201608 73 9 0.0 0.0 0.00 0.00 0.00 60 1017.1
20260905194557 74 5 0.0 0.0 0.00 0.00 0.00 59 1016.9
20260905193057 74 360 0.0 0.0 0.00 0.00 0.00 56 1016.9
20260905191557 76 355 0.0 0.0 0.00 0.00 0.00 55 1016.8
20260905190115 78 15 0.0 0.0 0.00 0.00 0.00 54 1016.7